When you browse on this site, cookies collect data to enhance your experience and personalize the content and advertising you see.
Visit our Privacy Policy to learn more. By continuing to use the site, you agree to this use of cookies and data.
  • In Romania
  • List of Countries
  • For 7 days
  • Water Temperature
  • Satellite Maps
  • Weather Map
  • Weather Widgets
  • user-avatar
    Login

    Hourly Weather Melbourne

    Today, 13 December, Thursday

    Time Temperature Precipitation Wind Pressure Humidity
    00:00 +23°C° 0 mm 1 mps 749 mmHg 70%
    01:00 +23°C° 0 mm 1 mps 748 mmHg 69%
    02:00 +23°C° 0 mm 1 mps 748 mmHg 69%
    03:00 +23°C° 0 mm 2 mps 747 mmHg 70%
    04:00 +21°C° 0 mm 1 mps 747 mmHg 73%
    05:00 +21°C° 0.5 mm 1 mps 747 mmHg 75%
    06:00 +21°C° 0.5 mm 1 mps 747 mmHg 76%
    07:00 +22°C° 0.5 mm 1 mps 747 mmHg 77%
    08:00 +23°C° 0.2 mm 2 mps 747 mmHg 74%
    09:00 +24°C° 0.2 mm 2 mps 746 mmHg 70%
    10:00 +19°C° 0 mm 5 mps 747 mmHg 96%
    11:00 +19°C° 1 mm 4 mps 747 mmHg 94%
    12:00 +19°C° 1 mm 4 mps 747 mmHg 92%
    13:00 +19°C° 1 mm 3 mps 746 mmHg 90%
    14:00 +19°C° 1 mm 3 mps 746 mmHg 90%
    15:00 +19°C° 1 mm 3 mps 746 mmHg 90%
    16:00 +19°C° 1 mm 3 mps 746 mmHg 90%
    17:00 +19°C° 0.6 mm 3 mps 746 mmHg 91%
    18:00 +18°C° 0.6 mm 3 mps 746 mmHg 93%
    19:00 +18°C° 0.6 mm 3 mps 746 mmHg 94%
    20:00 +18°C° 0.3 mm 3 mps 746 mmHg 95%
    21:00 +18°C° 0.3 mm 3 mps 746 mmHg 96%
    22:00 +18°C° 0.3 mm 3 mps 746 mmHg 97%
    23:00 +18°C° 0.4 mm 3 mps 746 mmHg 97%

    Tomorrow, 14 December, Friday

    Time Temperature Precipitation Wind Pressure Humidity
    00:00 +18°C° 0.4 mm 3 mps 746 mmHg 97%
    01:00 +18°C° 0.4 mm 3 mps 746 mmHg 97%
    02:00 +18°C° 1.2 mm 3 mps 746 mmHg 97%
    03:00 +18°C° 1.2 mm 3 mps 746 mmHg 96%
    04:00 +18°C° 1.2 mm 3 mps 747 mmHg 96%
    05:00 +18°C° 0.3 mm 3 mps 748 mmHg 94%
    06:00 +17°C° 0.3 mm 4 mps 748 mmHg 92%
    07:00 +15°C° 0.3 mm 4 mps 749 mmHg 90%
    08:00 +16°C° 1.1 mm 3 mps 750 mmHg 86%
    09:00 +17°C° 1.1 mm 3 mps 750 mmHg 83%
    10:00 +17°C° 1.1 mm 2 mps 751 mmHg 80%
    11:00 +19°C° 0 mm 2 mps 751 mmHg 69%
    12:00 +22°C° 0 mm 3 mps 751 mmHg 59%
    13:00 +25°C° 0 mm 3 mps 750 mmHg 48%
    14:00 +25°C° 0.2 mm 3 mps 750 mmHg 53%
    15:00 +25°C° 0.2 mm 3 mps 750 mmHg 58%
    16:00 +25°C° 0.2 mm 3 mps 750 mmHg 63%
    17:00 +24°C° 0.6 mm 2 mps 750 mmHg 71%
    18:00 +23°C° 0.6 mm 2 mps 750 mmHg 79%
    19:00 +21°C° 0.6 mm 2 mps 751 mmHg 88%
    20:00 +21°C° 0.6 mm 1 mps 751 mmHg 90%
    21:00 +21°C° 0.6 mm 1 mps 752 mmHg 93%
    22:00 +20°C° 0.6 mm 1 mps 752 mmHg 95%
    23:00 +20°C° 0 mm 1 mps 752 mmHg 96%

    Day after tomorrow, 15 December, Saturday

    Time Temperature Precipitation Wind Pressure Humidity
    00:00 +19°C° 0 mm 1 mps 752 mmHg 97%
    01:00 +19°C° 0 mm 1 mps 752 mmHg 97%
    02:00 +19°C° 0 mm 1 mps 752 mmHg 97%
    03:00 +19°C° 0 mm 1 mps 752 mmHg 97%
    04:00 +19°C° 0 mm 1 mps 752 mmHg 97%
    05:00 +20°C° 0 mm 1 mps 752 mmHg 93%
    06:00 +21°C° 0 mm 1 mps 752 mmHg 89%
    07:00 +22°C° 0 mm 1 mps 752 mmHg 85%
    08:00 +24°C° 0 mm 1 mps 752 mmHg 70%
    09:00 +27°C° 0 mm 2 mps 752 mmHg 55%
    10:00 +29°C° 0 mm 2 mps 752 mmHg 40%
    11:00 +30°C° 0 mm 2 mps 752 mmHg 36%
    12:00 +31°C° 0 mm 2 mps 751 mmHg 33%
    13:00 +31°C° 0 mm 2 mps 751 mmHg 29%
    14:00 +31°C° 0 mm 3 mps 750 mmHg 31%
    15:00 +30°C° 0 mm 3 mps 750 mmHg 34%
    16:00 +30°C° 0 mm 4 mps 749 mmHg 36%
    17:00 +28°C° 0.5 mm 4 mps 750 mmHg 47%
    18:00 +26°C° 0.5 mm 4 mps 750 mmHg 58%
    19:00 +24°C° 0.5 mm 3 mps 750 mmHg 68%
    20:00 +24°C° 0.7 mm 3 mps 750 mmHg 73%
    21:00 +22°C° 0.7 mm 3 mps 750 mmHg 78%
    22:00 +21°C° 0.7 mm 2 mps 750 mmHg 82%
    23:00 +20°C° 0.8 mm 2 mps 750 mmHg 84%

    16 December, Sunday

    Time Temperature Precipitation Wind Pressure Humidity
    00:00 +20°C° 0.8 mm 2 mps 750 mmHg 85%
    01:00 +19°C° 0.8 mm 2 mps 749 mmHg 86%
    02:00 +18°C° 1 mm 2 mps 749 mmHg 87%
    03:00 +17°C° 1 mm 3 mps 749 mmHg 88%
    04:00 +17°C° 1 mm 4 mps 749 mmHg 88%
    05:00 +17°C° 0.3 mm 4 mps 750 mmHg 85%
    06:00 +18°C° 0.3 mm 4 mps 751 mmHg 82%
    07:00 +19°C° 0.3 mm 4 mps 751 mmHg 78%
    08:00 +20°C° 0.3 mm 4 mps 751 mmHg 72%
    09:00 +22°C° 0.3 mm 4 mps 752 mmHg 66%
    10:00 +23°C° 0.3 mm 4 mps 752 mmHg 59%
    11:00 +25°C° 0.5 mm 4 mps 752 mmHg 59%
    12:00 +26°C° 0.5 mm 4 mps 751 mmHg 58%
    13:00 +26°C° 0.5 mm 3 mps 751 mmHg 57%
    14:00 +27°C° 0.3 mm 3 mps 751 mmHg 56%
    15:00 +27°C° 0.3 mm 3 mps 751 mmHg 55%
    16:00 +27°C° 0.3 mm 3 mps 751 mmHg 53%
    17:00 +26°C° 0.3 mm 2 mps 752 mmHg 58%
    18:00 +25°C° 0.3 mm 2 mps 752 mmHg 62%
    19:00 +24°C° 0.3 mm 2 mps 752 mmHg 67%
    20:00 +23°C° 0.9 mm 1 mps 753 mmHg 72%
    21:00 +22°C° 0.9 mm 1 mps 753 mmHg 78%
    22:00 +21°C° 0.9 mm 1 mps 754 mmHg 83%
    23:00 +20°C° 0 mm 1 mps 754 mmHg 86%

    17 December, Monday

    Time Temperature Precipitation Wind Pressure Humidity
    00:00 +19°C° 0 mm 1 mps 754 mmHg 89%
    01:00 +18°C° 0 mm 2 mps 754 mmHg 91%
    02:00 +17°C° 0 mm 2 mps 754 mmHg 92%
    03:00 +17°C° 0 mm 2 mps 754 mmHg 93%
    04:00 +17°C° 0 mm 2 mps 754 mmHg 94%
    05:00 +18°C° 0 mm 2 mps 754 mmHg 90%
    06:00 +19°C° 0 mm 2 mps 755 mmHg 85%
    07:00 +20°C° 0 mm 2 mps 755 mmHg 81%
    08:00 +21°C° 0 mm 2 mps 756 mmHg 78%
    09:00 +21°C° 0 mm 3 mps 756 mmHg 75%
    10:00 +22°C° 0 mm 3 mps 756 mmHg 72%
    11:00 +24°C° 0 mm 3 mps 756 mmHg 70%
    12:00 +25°C° 0 mm 3 mps 756 mmHg 67%
    13:00 +25°C° 0 mm 3 mps 756 mmHg 65%
    14:00 +25°C° 0 mm 4 mps 756 mmHg 66%
    15:00 +25°C° 0 mm 4 mps 756 mmHg 66%
    16:00 +25°C° 0 mm 4 mps 757 mmHg 67%
    17:00 +23°C° 0 mm 4 mps 757 mmHg 71%
    18:00 +22°C° 0 mm 4 mps 758 mmHg 75%
    19:00 +20°C° 0 mm 4 mps 758 mmHg 79%
    20:00 +19°C° 0 mm 3 mps 759 mmHg 83%
    21:00 +18°C° 0 mm 3 mps 759 mmHg 87%
    22:00 +17°C° 0 mm 2 mps 760 mmHg 90%
    23:00 +17°C° 0 mm 2 mps 759 mmHg 91%

    18 December, Tuesday

    Time Temperature Precipitation Wind Pressure Humidity
    00:00 +17°C° 0 mm 2 mps 759 mmHg 91%
    01:00 +17°C° 0 mm 2 mps 759 mmHg 92%
    02:00 +16°C° 0 mm 2 mps 759 mmHg 92%
    03:00 +16°C° 0 mm 2 mps 759 mmHg 93%
    04:00 +16°C° 0 mm 2 mps 759 mmHg 93%
    05:00 +16°C° 0 mm 2 mps 759 mmHg 90%
    06:00 +17°C° 0 mm 2 mps 759 mmHg 88%
    07:00 +17°C° 0 mm 2 mps 760 mmHg 85%
    08:00 +19°C° 0 mm 2 mps 760 mmHg 77%
    09:00 +21°C° 0 mm 2 mps 760 mmHg 69%
    10:00 +23°C° 0 mm 2 mps 760 mmHg 61%
    11:00 +25°C° 0 mm 2 mps 759 mmHg 55%
    12:00 +27°C° 0 mm 3 mps 759 mmHg 49%
    13:00 +28°C° 0 mm 3 mps 758 mmHg 43%
    14:00 +28°C° 0 mm 3 mps 758 mmHg 44%
    15:00 +28°C° 0 mm 4 mps 758 mmHg 46%
    16:00 +28°C° 0 mm 4 mps 758 mmHg 47%
    17:00 +26°C° 0 mm 4 mps 758 mmHg 54%
    18:00 +25°C° 0 mm 3 mps 758 mmHg 61%
    19:00 +22°C° 0 mm 3 mps 759 mmHg 68%
    20:00 +21°C° 0 mm 2 mps 759 mmHg 74%
    21:00 +19°C° 0 mm 2 mps 759 mmHg 80%
    22:00 +18°C° 0 mm 2 mps 759 mmHg 86%
    23:00 +18°C° 0 mm 2 mps 759 mmHg 88%
    Show more